Calgary / Springba, Alberta

4:49 AM MST on February 27, 2017 (GMT -0700)
Springbank

Weather History for CYBW - December, 2012

Change the Weather History Date:

Sunday, December 2, 2012

  Actual Average Record
Temperature  
Mean Temperature 8 °F -  
Max Temperature 12 °F 27 °F 46 °F (2004)
Min Temperature 4 °F 8 °F -13 °F (2007)
Degree Days  
Heating Degree Days 57    
Moisture  
Dew Point 7 °F    
Average Humidity 87    
Maximum Humidity 92    
Minimum Humidity 81    
Precipitation  
Precipitation 0.12 in - - ()
Sea Level Pressure  
Sea Level Pressure 29.49 in    
Wind  
Wind Speed 3 mph ()    
Max Wind Speed 8 mph    
Max Gust Speed -    
Visibility 3.2 miles    
Events Fog , Snow    
Averages and records for this station are not official NWS values.
T = Trace of Precipitation, MM = Missing Value Source: Averaged Metar Reports

Daily Weather History Graph

Daily Weather History Graph

Search for Another Location

Airport or City:

Trip Planner

Search our weather history database for the weather conditions in past years. The results will help you decide how hot, cold, wet, or windy it might be!

Date:

Astronomy

Dec. 02, 2012 Rise Set
Actual Time 8:21 AM MST 4:32 PM MST
Civil Twilight 7:42 AM MST 5:11 PM MST
Nautical Twilight 7:00 AM MST 5:53 PM MST
Astronomical Twilight 6:20 AM MST 6:33 PM MST
Moon 8:36 PM MST (12/2) 11:02 AM MST (12/2)
Length of Visible Light 9h 29m
Length of Day
8h 11m
Waning Gibbous, 85% of the Moon is Illuminated
Dec 2
Waning Gibbous
Dec 6
Last Quarter
Dec 13
New
Dec 19
First Quarter
Dec 28
Full

Hourly Weather History & Observations

Time (MST) Temp. Windchill Dew Point Humidity Pressure Visibility Wind Dir Wind Speed Gust Speed Precip Events Conditions
5:00 AM 6 °F - 3 °F 81% 29.55 in 0 mi Calm Calm - - Fog Heavy Fog
5:00 AM 6.8 °F -2.0 °F 3.2 °F 85% 29.55 in 0.1 mi ESE 4.6 mph - N/A Fog Light Freezing Fog
6:00 AM 6.8 °F -0.1 °F 3.2 °F 85% 29.54 in 0.1 mi SW 3.5 mph - N/A Fog Light Freezing Fog
6:41 AM 6.8 °F -0.1 °F 5.0 °F 92% 29.54 in 1.0 mi SW 3.5 mph - N/A   Overcast
7:00 AM 8.6 °F - 5.0 °F 85% 29.52 in 3.0 mi Calm Calm - N/A   Overcast
8:00 AM 8.6 °F - 5.0 °F 85% 29.49 in 4.0 mi Calm Calm - N/A   Overcast
9:00 AM 10.4 °F 2.2 °F 6.8 °F 85% 29.49 in 2.0 mi SE 4.6 mph - N/A   Overcast
9:14 AM 10.4 °F 0.8 °F 6.8 °F 85% 29.48 in 3.0 mi South 5.8 mph - N/A   Light Freezing Drizzle
9:48 AM 10.4 °F 0.8 °F 8.6 °F 92% 29.48 in 3.0 mi South 5.8 mph - N/A   Overcast
10:00 AM 10.4 °F 0.8 °F 8.6 °F 92% 29.47 in 3.0 mi South 5.8 mph - N/A   Overcast
10:43 AM 10.4 °F - 8.6 °F 92% 29.46 in 3.0 mi Calm Calm - N/A   Overcast
11:00 AM 11 °F - 8 °F 83% 29.46 in 3 mi Calm Calm - -   Mist
11:00 AM 10.4 °F - 8.6 °F 92% 29.46 in 3.0 mi Calm Calm - N/A   Overcast
11:06 AM 12.2 °F - 8.6 °F 85% 29.45 in 3.0 mi Variable 2.3 mph - N/A Snow Light Snow
11:25 AM 12.2 °F 6.1 °F 8.6 °F 85% 29.46 in 1.5 mi ESE 3.5 mph - N/A Snow Light Snow
11:34 AM 12.2 °F - 8.6 °F 85% 29.46 in 1.0 mi East 2.3 mph - N/A Snow Light Snow
12:00 PM 12.2 °F 4.3 °F 8.6 °F 85% 29.43 in 0.8 mi ENE 4.6 mph - N/A Snow Light Snow
1:00 PM 12.2 °F 4.3 °F 10.4 °F 92% 29.42 in 1.2 mi East 4.6 mph - N/A Snow Light Snow
2:00 PM 12.2 °F 2.9 °F 10.4 °F 92% 29.43 in 1.0 mi East 5.8 mph - N/A Snow Light Snow
2:55 PM 10.4 °F -1.5 °F 8.6 °F 92% 29.44 in 2.0 mi ENE 8.1 mph - N/A Snow Light Snow
3:00 PM 10.4 °F -0.4 °F 8.6 °F 92% 29.45 in 2.5 mi East 6.9 mph - N/A Snow Light Snow
3:20 PM 10.4 °F -1.5 °F 6.8 °F 85% 29.46 in 4.0 mi ENE 8.1 mph - N/A Snow Light Snow
3:30 PM 10.4 °F 2.2 °F 6.8 °F 85% 29.47 in 5.0 mi ENE 4.6 mph - N/A   Overcast
4:00 PM 10.4 °F 0.8 °F 6.8 °F 85% 29.48 in 5.0 mi NNE 5.8 mph - N/A   Overcast
5:00 PM 10 °F - 7 °F 82% 29.50 in 5 mi North 3.5 mph - -   Mist
5:00 PM 10.4 °F 4.0 °F 6.8 °F 85% 29.50 in 5.0 mi North 3.5 mph - N/A   Overcast
6:00 PM 10.4 °F - 6.8 °F 85% 29.51 in 10.0 mi NW 2.3 mph - N/A   Overcast
6:39 PM 10.4 °F -0.4 °F 6.8 °F 85% 29.52 in 8.0 mi NNW 6.9 mph - N/A   Overcast
7:00 PM 10.4 °F 2.2 °F 6.8 °F 85% 29.53 in 8.0 mi WNW 4.6 mph - N/A   Overcast
7:37 PM 10.4 °F 4.0 °F 6.8 °F 85% 29.54 in 3.0 mi NW 3.5 mph - N/A   Overcast
8:00 PM 10.4 °F 4.0 °F 6.8 °F 85% 29.55 in 3.0 mi NW 3.5 mph - N/A   Overcast
9:00 PM 10.4 °F 4.0 °F 6.8 °F 85% 29.59 in 4.0 mi North 3.5 mph - N/A   Overcast
10:00 PM 10.4 °F - 6.8 °F 85% 29.40 in 4.0 mi Calm Calm - N/A   Overcast